Change the Weather History Date:

Thursday, November 29, 2012

  Actual Average Record
Temperature  
Mean Temperature -18 °F -  
Max Temperature -14 °F 0 °F 35 °F (1979)
Min Temperature -23 °F -12 °F -52 °F (1990)
Degree Days  
Heating Degree Days 84    
Moisture  
Dew Point -24 °F    
Average Humidity 74    
Maximum Humidity 81    
Minimum Humidity 59    
Precipitation  
Precipitation 0.00 in - - ()
Snow  
Snow 0.00 in - - ()
Snow Depth 1.00 in    
Sea Level Pressure  
Sea Level Pressure 30.36 in    
Wind  
Wind Speed 1 mph (North)    
Max Wind Speed 6 mph    
Max Gust Speed -    
Visibility 10 miles    
Events      
Averages and records for this station are not official NWS values.
T = Trace of Precipitation, MM = Missing Value Source: NWS Daily Summary

Daily Weather History Graph

Daily Weather History Graph

Search for Another Location

Airport or City:

Trip Planner

Search our weather history database for the weather conditions in past years. The results will help you decide how hot, cold, wet, or windy it might be!

Date:

Astronomy

Nov. 29, 2012 Rise Set
Actual Time 11:06 AM AKST 2:42 PM AKST
Civil Twilight 9:34 AM AKST 4:13 PM AKST
Nautical Twilight 8:18 AM AKST 5:29 PM AKST
Astronomical Twilight 7:13 AM AKST 6:35 PM AKST
Moon 3:50 PM AKST (11/29) 12:05 PM AKST (11/29)
Length of Visible Light 6h 39m
Length of Day
3h 35m
Full, 99% of the Moon is Illuminated
Nov 29
Full
Dec 6
Last Quarter
Dec 12
New
Dec 19
First Quarter
Dec 28
Full

Hourly Weather History & Observations

Time (AKST) Temp. Windchill Dew Point Humidity Pressure Visibility Wind Dir Wind Speed Gust Speed Precip Events Conditions
12:53 AM -15.0 °F - -20.0 °F 78% 30.31 in 10.0 mi Calm Calm - N/A   Mostly Cloudy
1:53 AM -14.1 °F - -18.9 °F 79% 30.30 in 10.0 mi Calm Calm - N/A   Scattered Clouds
2:53 AM -14.1 °F - -18.9 °F 79% 30.29 in 10.0 mi Calm Calm - N/A   Scattered Clouds
3:53 AM -16.1 °F -26.2 °F -20.9 °F 79% 30.29 in 10.0 mi NNE 3.5 mph - N/A   Scattered Clouds
4:53 AM -18.0 °F - -23.1 °F 78% 30.30 in 10.0 mi Calm Calm - N/A   Scattered Clouds
5:53 AM -20.0 °F - -25.1 °F 78% 30.30 in 10.0 mi Calm Calm - N/A   Scattered Clouds
6:53 AM -20.9 °F - -27.0 °F 73% 30.31 in 10.0 mi Calm Calm - N/A   Partly Cloudy
7:53 AM -22.0 °F - -27.9 °F 74% 30.32 in 10.0 mi Calm Calm - N/A   Clear
8:53 AM -20.9 °F - -27.0 °F 73% 30.34 in 10.0 mi Calm Calm - N/A   Clear
9:53 AM -20.9 °F - -27.0 °F 73% 30.34 in 10.0 mi Calm Calm - N/A   Clear
10:53 AM -18.0 °F -33.0 °F -23.1 °F 78% 30.36 in 10.0 mi NNE 5.8 mph - N/A   Clear
11:53 AM -18.9 °F - -23.1 °F 81% 30.39 in 10.0 mi Calm Calm - N/A   Clear
12:53 PM -17.0 °F - -23.1 °F 74% 30.39 in 10.0 mi Calm Calm - N/A   Partly Cloudy
1:53 PM -18.0 °F - -24.0 °F 74% 30.39 in 10.0 mi Calm Calm - N/A   Clear
2:53 PM -18.0 °F -28.5 °F -23.1 °F 78% 30.39 in 10.0 mi West 3.5 mph - N/A   Clear
3:53 PM -17.0 °F - -23.1 °F 74% 30.40 in 10.0 mi Calm Calm - N/A   Clear
4:53 PM -20.0 °F - -26.0 °F 74% 30.42 in 10.0 mi Calm Calm - N/A   Clear
5:53 PM -22.0 °F - -27.9 °F 74% 30.43 in 10.0 mi Calm Calm - N/A   Clear
6:53 PM -22.0 °F - -27.9 °F 74% 30.42 in 10.0 mi Calm Calm - N/A   Clear
7:53 PM -20.9 °F - -26.0 °F 77% 30.42 in 10.0 mi Calm Calm - N/A   Clear
8:53 PM -23.1 °F - -29.0 °F 74% 30.41 in 10.0 mi Calm Calm - N/A   Clear
9:53 PM -20.0 °F -33.3 °F -25.1 °F 78% 30.42 in 10.0 mi NE 4.6 mph - N/A   Clear
10:53 PM -20.0 °F - -25.1 °F 78% 30.41 in 10.0 mi Calm Calm - N/A   Clear
11:53 PM -20.0 °F - -25.1 °F 78% 30.40 in 10.0 mi Calm Calm - N/A   Clear